Theta_e
285 284 284 284 284 284 284 282 282 283 284 284 284 283 282 282 281 281 283 283 283 284 285 285 285 285 285 285 285 285 285 286
283 283 283 284 284 283 283 284 283 283 284 284 284 283 282 280 281 281 281 282 282 283 282 282 283 284 284 284 284 284 285 285
285 284 284 284 284 283 283 283 284 284 283 283 283 283 281 281 280 280 279 280 281 282 281 282 282 282 282 283 283 284 284 285
282 281 280 280 281 280 281 282 283 283 282 282 280 280 281 281 281 281 281 280 280 280 280 280 281 281 281 281 282 283 284 285
279 279 280 280 280 280 280 280 281 280 279 279 278 279 280 279 279 279 280 279 279 279 279 280 280 281 281 281 282 282 283 283
279 279 279 279 280 281 281 281 280 279 279 279 279 279 279 278 278 278 278 279 278 278 279 279 279 280 279 280 281 281 282 283
279 280 280 280 280 281 280 280 280 278 278 278 278 279 278 279 279 279 278 278 278 277 277 276 278 281 282 282 280 281 281 281
279 280 280 280 280 279 279 278 276 275 275 276 276 277 277 277 277 276 276 276 275 276 276 276 276 280 281 281 279 279 279 280
279 279 279 280 278 278 278 276 276 274 273 273 275 273 274 273 273 273 273 272 273 273 274 274 275 279 279 280 277 277 277 278
279 280 278 276 276 276 275 275 274 273 273 273 271 269 269 268 268 269 269 268 268 270 270 270 271 275 276 276 275 275 275 276
279 277 276 274 274 273 272 271 270 271 271 270 269 266 266 266 265 265 265 266 266 266 266 266 266 270 272 273 271 270 272 273
276 275 273 273 272 270 270 268 269 269 268 266 266 264 263 263 264 263 262 263 262 263 263 264 265 266 270 272 271 270 270 271
274 273 272 272 269 268 267 269 266 265 264 263 262 262 263 261 261 261 261 260 260 260 261 263 265 267 269 271 272 272 268 268
270 270 270 267 267 265 266 265 264 259 258 259 260 261 261 260 259 260 260 260 260 261 260 261 264 264 268 270 271 271 268 269
266 264 263 264 266 263 263 263 256 255 259 261 260 259 260 260 260 259 259 259 259 260 260 261 263 265 266 265 265 268 268 269
265 264 263 264 262 260 262 258 257 258 260 260 260 259 259 260 259 260 262 263 263 264 265 265 265 267 271 272 271 270 270 268
263 262 260 258 258 258 255 254 255 258 260 259 259 259 259 259 259 264 267 268 270 271 270 268 272 273 274 274 275 275 276 270
262 261 257 256 257 256 255 252 253 257 258 259 259 258 258 258 258 258 262 267 268 269 270 271 272 274 274 275 275 276 275 269
259 256 253 253 254 256 254 252 252 254 258 258 258 258 258 258 259 259 259 259 261 266 268 270 271 272 274 274 274 269 270 268
254 255 253 252 254 254 253 253 252 256 258 257 257 258 259 259 259 259 260 260 260 262 265 265 269 271 270 270 266 266 266 268
Wind_Speed
6 6 5 5 4 5 6 6 6 6 6 5 6 5 6 6 6 6 6 7 8 8 9 10 8 7 6 5 6 6 5 6
5 6 5 4 4 4 3 4 4 4 4 5 5 4 4 4 5 7 6 7 8 8 7 9 10 9 7 7 6 7 9 7
6 6 6 5 5 4 4 3 2 2 0 2 4 5 6 6 6 6 7 6 7 7 7 8 8 9 8 9 7 7 8 10
6 5 5 5 4 4 4 4 3 2 1 3 3 4 5 6 7 8 8 9 9 8 8 8 7 8 10 9 9 9 10 10
5 5 4 3 2 2 1 1 2 2 2 4 5 5 6 6 7 7 8 8 9 9 10 10 10 10 10 10 10 10 10 10
7 7 5 4 4 3 3 3 2 3 5 6 6 7 8 8 9 8 7 9 10 12 11 11 11 10 10 11 12 12 13 12
8 8 8 7 6 3 1 2 2 4 6 6 8 10 10 11 12 12 13 13 12 13 13 14 11 22 26 23 15 15 15 16
8 7 5 5 4 1 1 2 2 3 5 7 8 10 11 11 12 14 16 16 17 17 16 18 17 25 27 28 16 17 17 17
4 3 6 3 3 5 5 3 3 4 5 5 6 6 9 12 14 16 15 17 17 18 18 18 18 31 32 31 19 17 18 18
4 4 5 6 5 4 1 2 2 6 6 5 6 9 12 13 14 14 15 16 17 17 19 19 21 31 34 31 19 18 20 19
6 4 6 4 4 3 1 1 4 4 6 9 9 8 12 14 15 14 13 16 14 17 17 19 20 27 32 28 15 19 16 19
6 5 4 3 4 4 3 4 3 5 7 7 8 10 12 13 12 14 15 15 15 17 15 16 17 17 28 28 16 14 15 15
5 3 3 5 4 3 4 5 4 5 7 9 9 8 9 12 13 13 14 15 15 16 14 11 13 20 23 27 28 26 17 18
4 3 3 2 2 3 5 6 6 4 7 8 9 9 9 11 12 11 12 12 13 12 13 13 12 12 27 30 30 29 20 15
4 2 0 2 0 3 5 5 3 5 8 8 9 10 9 8 10 10 11 11 12 12 14 14 12 11 11 12 15 25 23 25
3 1 2 1 2 4 6 3 6 7 9 9 8 9 10 9 11 10 13 14 14 13 13 15 14 13 25 24 15 13 16 18
1 1 3 2 4 6 5 3 5 8 8 8 9 8 9 10 11 22 25 28 30 32 25 15 28 34 34 33 33 33 32 15
2 2 3 2 6 6 6 3 5 7 10 9 10 8 9 10 11 12 18 27 27 28 30 31 31 34 32 31 31 32 28 11
1 4 3 3 7 7 5 4 5 5 11 8 8 8 9 10 11 11 12 14 17 21 26 28 31 32 32 31 27 14 15 11
3 6 3 5 8 5 4 4 5 6 6 7 8 8 10 11 11 10 11 12 13 14 18 18 30 30 28 26 11 12 11 12
Wind_Direction
121 115 98 89 89 76 75 60 36 35 24 15 4 9 5 355 1 1 341 344 341 342 345 340 341 342 340 319 304 288 270 258
132 119 111 95 87 108 103 81 58 34 21 0 345 4 349 340 339 337 327 328 336 332 335 337 342 338 333 313 298 297 290 274
137 145 154 159 158 142 139 145 148 173 47 3 319 335 334 328 323 323 318 316 315 318 319 323 330 324 323 311 301 289 282 282
155 158 157 157 153 135 133 147 156 111 41 335 303 323 311 311 303 312 308 307 315 313 299 300 294 299 300 297 296 291 282 277
171 172 176 183 196 191 236 12 353 328 318 320 320 320 313 287 278 277 276 287 292 293 295 293 295 287 280 279 280 278 277 274
190 198 204 209 223 222 245 268 292 304 319 313 315 325 319 310 309 305 295 291 296 297 294 290 287 286 291 283 279 274 275 270
192 198 201 203 208 210 268 315 10 333 315 318 330 322 310 307 307 307 308 308 301 294 293 291 288 290 291 291 287 282 278 276
218 220 201 175 158 206 341 31 24 338 324 321 310 305 306 310 313 312 309 307 302 298 295 291 286 286 291 294 291 288 281 276
225 164 141 145 83 78 50 27 349 317 300 295 303 314 323 318 311 308 305 303 301 297 296 294 290 293 296 295 289 284 280 279
162 143 131 98 86 91 82 351 324 307 312 344 341 319 312 304 302 302 301 298 296 294 295 295 294 301 301 300 294 285 282 280
151 116 105 86 81 85 54 339 304 330 329 320 314 302 300 299 299 295 290 289 292 291 291 292 293 299 298 298 289 286 286 282
113 121 112 97 61 24 345 311 325 329 312 305 300 298 292 291 294 294 292 289 289 287 288 287 287 290 294 295 288 284 281 276
134 121 88 76 56 338 303 322 319 305 300 296 290 284 290 288 290 290 289 288 289 289 288 284 284 284 289 291 292 291 290 287
133 121 79 90 120 284 302 310 309 293 285 284 287 288 287 291 294 295 289 290 291 291 291 288 281 274 277 282 285 283 280 276
100 54 310 202 245 248 290 298 291 278 292 295 298 296 289 295 292 291 289 288 288 286 283 281 277 272 267 260 260 263 268 268
128 237 265 254 266 273 284 284 303 301 301 300 294 294 297 289 288 282 281 282 285 287 289 294 292 289 289 296 295 283 262 251
196 258 269 282 292 275 273 275 289 303 308 304 301 299 300 298 292 290 295 299 300 301 301 296 295 300 299 297 295 292 290 272
241 272 269 297 288 280 279 264 260 289 303 302 301 299 304 300 296 301 307 305 306 308 307 307 301 300 301 304 300 296 296 271
281 278 266 282 275 276 275 270 264 274 288 289 290 297 301 296 296 300 304 308 312 315 315 318 320 317 313 311 310 301 291 272
274 279 282 271 278 272 272 267 274 291 295 296 288 293 301 299 297 300 303 307 306 312 318 322 316 320 329 328 319 311 307 294